Weather History for Cloquet, MN

Change the Weather History Date:

Thursday, May 29, 2014

  Actual Average Record
Temperature  
Mean Temperature 60 °F -  
Max Temperature 82 °F 63 °F 86 °F (1999)
Min Temperature 39 °F 40 °F 35 °F (2005)
Degree Days  
Heating Degree Days 4    
Growing Degree Days 10 (Base 50)    
Moisture  
Dew Point 43 °F    
Average Humidity 57    
Maximum Humidity 93    
Minimum Humidity 24    
Precipitation  
Precipitation 0.00 in - - ()
Sea Level Pressure  
Sea Level Pressure 30.12 in    
Wind  
Wind Speed 2 mph (ESE)    
Max Wind Speed 9 mph    
Max Gust Speed 16 mph    
Visibility 10 miles    
Events      
Averages and records for this station are not official NWS values.
T = Trace of Precipitation, MM = Missing Value Source: NWS Daily Summary

Daily Weather History Graph

Daily Weather History Graph

Search for Another Location

Airport:

Trip Planner

Search our weather history database for the weather conditions in past years. The results will help you decide how hot, cold, wet, or windy it might be!

Date:

Astronomy

May. 29, 2014 Rise Set
Actual Time 5:22 AM CDT 8:53 PM CDT
Civil Twilight 4:44 AM CDT 9:31 PM CDT
Nautical Twilight 3:54 AM CDT 10:21 PM CDT
Astronomical Twilight 2:47 AM CDT 11:28 PM CDT
Moon 6:19 AM CDT (5/29) 9:40 PM CDT (5/29)
Length of Visible Light 16h 47m
Length of Day
15h 31m
New Moon, 1% of the Moon is Illuminated
May 29
New Moon
Jun 5
First Quarter
Jun 12
Full
Jun 19
Last Quarter
Jun 27
New

Hourly Weather History & Observations

Time (CDT) Temp. Dew Point Humidity Pressure Visibility Wind Dir Wind Speed Gust Speed Precip Events Conditions
12:16 AM 46.4 °F 41.0 °F 81% 30.13 in 10.0 mi Calm Calm - N/A   Clear
12:36 AM 46.4 °F 41.0 °F 81% 30.14 in 10.0 mi Calm Calm - N/A   Clear
1:16 AM 44.6 °F 41.0 °F 87% 30.13 in 10.0 mi Calm Calm - N/A   Clear
1:36 AM 44.6 °F 41.0 °F 87% 30.13 in 10.0 mi Calm Calm - N/A   Clear
1:56 AM 44.6 °F 41.0 °F 87% 30.12 in 10.0 mi Calm Calm - N/A   Clear
2:17 AM 42.8 °F 39.2 °F 87% 30.12 in 10.0 mi Calm Calm - N/A   Clear
2:36 AM 42.8 °F 39.2 °F 87% 30.12 in 10.0 mi Calm Calm - N/A   Clear
2:56 AM 41.0 °F 39.2 °F 93% 30.14 in 10.0 mi Calm Calm - N/A   Clear
3:17 AM 41.0 °F 37.4 °F 87% 30.14 in 10.0 mi Calm Calm - N/A   Clear
3:36 AM 41.0 °F 37.4 °F 87% 30.15 in 10.0 mi Calm Calm - N/A   Clear
3:56 AM 39.2 °F 37.4 °F 93% 30.14 in 10.0 mi Calm Calm - N/A   Clear
4:17 AM 41.0 °F 39.2 °F 93% 30.14 in 10.0 mi Calm Calm - N/A   Clear
4:36 AM 39.2 °F 37.4 °F 93% 30.14 in 10.0 mi Calm Calm - N/A   Clear
4:56 AM 39.2 °F 37.4 °F 93% 30.15 in 10.0 mi Calm Calm - N/A   Clear
5:17 AM 41.0 °F 39.2 °F 93% 30.15 in 10.0 mi Calm Calm - N/A   Clear
5:36 AM 39.2 °F 37.4 °F 93% 30.14 in 10.0 mi Calm Calm - N/A   Clear
5:57 AM 39.2 °F 37.4 °F 93% 30.15 in 10.0 mi Calm Calm - N/A   Clear
6:17 AM 42.8 °F 39.2 °F 87% 30.14 in 10.0 mi Calm Calm - N/A   Clear
6:36 AM 46.4 °F 42.8 °F 87% 30.14 in 10.0 mi Calm Calm - N/A   Clear
6:57 AM 48.2 °F 42.8 °F 82% 30.15 in 10.0 mi Calm Calm - N/A   Clear
7:17 AM 50.0 °F 42.8 °F 76% 30.15 in 10.0 mi ESE 3.5 mph - N/A   Clear
7:36 AM 50.0 °F 42.8 °F 76% 30.15 in 10.0 mi East 3.5 mph - N/A   Clear
7:57 AM 51.8 °F 44.6 °F 76% 30.16 in 10.0 mi East 4.6 mph - N/A   Clear
8:16 AM 53.6 °F 44.6 °F 72% 30.16 in 10.0 mi Calm Calm - N/A   Clear
8:36 AM 55.4 °F 44.6 °F 67% 30.15 in 10.0 mi ESE 4.6 mph - N/A   Clear
8:57 AM 59.0 °F 46.4 °F 63% 30.15 in 10.0 mi ESE 4.6 mph - N/A   Clear
9:16 AM 60.8 °F 46.4 °F 59% 30.15 in 10.0 mi SE 4.6 mph - N/A   Clear
9:37 AM 62.6 °F 46.4 °F 55% 30.15 in 10.0 mi East 3.5 mph - N/A   Clear
9:57 AM 62.6 °F 46.4 °F 55% 30.16 in 10.0 mi Calm Calm - N/A   Clear
10:16 AM 64.4 °F 46.4 °F 52% 30.15 in 10.0 mi Calm Calm - N/A   Clear
10:37 AM 66.2 °F 46.4 °F 49% 30.16 in 10.0 mi ESE 3.5 mph - N/A   Clear
10:56 AM 68.0 °F 48.2 °F 49% 30.15 in 10.0 mi Calm Calm - N/A   Clear
11:16 AM 69.8 °F 46.4 °F 43% 30.14 in 10.0 mi East 3.5 mph - N/A   Clear
11:37 AM 71.6 °F 48.2 °F 43% 30.14 in 10.0 mi South 5.8 mph - N/A   Clear
11:56 AM 73.4 °F 48.2 °F 41% 30.14 in 10.0 mi SE 3.5 mph - N/A   Clear
12:17 PM 75.2 °F 46.4 °F 36% 30.14 in 10.0 mi West 3.5 mph - N/A   Clear
12:37 PM 75.2 °F 42.8 °F 31% 30.14 in 10.0 mi Calm Calm - N/A   Clear
12:56 PM 75.2 °F 44.6 °F 34% 30.14 in 10.0 mi Calm Calm - N/A   Clear
1:17 PM 78.8 °F 42.8 °F 28% 30.13 in 10.0 mi Calm Calm - N/A   Clear
1:37 PM 78.8 °F 41.0 °F 26% 30.13 in 10.0 mi SE 5.8 mph - N/A   Clear
1:56 PM 78.8 °F 39.2 °F 24% 30.13 in 10.0 mi SSE 5.8 mph - N/A   Clear
2:17 PM 78.8 °F 41.0 °F 26% 30.13 in 10.0 mi SE 3.5 mph - N/A   Clear
2:36 PM 80.6 °F 44.6 °F 28% 30.12 in 10.0 mi ESE 5.8 mph - N/A   Clear
2:56 PM 80.6 °F 42.8 °F 26% 30.11 in 10.0 mi South 3.5 mph - N/A   Clear
3:17 PM 80.6 °F 42.8 °F 26% 30.11 in 10.0 mi Calm Calm - N/A   Clear
3:36 PM 80.6 °F 44.6 °F 28% 30.10 in 10.0 mi East 6.9 mph - N/A   Clear
4:17 PM 82.4 °F 44.6 °F 26% 30.09 in 10.0 mi East 9.2 mph 16.1 mph N/A   Clear
4:36 PM 80.6 °F 46.4 °F 30% 30.09 in 10.0 mi East 9.2 mph - N/A   Clear
5:17 PM 82.4 °F 46.4 °F 28% 30.09 in 10.0 mi ESE 4.6 mph - N/A   Clear
5:36 PM 80.6 °F 44.6 °F 28% 30.08 in 10.0 mi East 8.1 mph - N/A   Clear
5:56 PM 80.6 °F 42.8 °F 26% 30.08 in 10.0 mi East 6.9 mph - N/A   Clear
6:17 PM 78.8 °F 42.8 °F 28% 30.08 in 10.0 mi ESE 5.8 mph - N/A   Clear
6:36 PM 77.0 °F 42.8 °F 29% 30.08 in 10.0 mi ESE 6.9 mph - N/A   Clear
6:57 PM 75.2 °F 42.8 °F 31% 30.08 in 10.0 mi ESE 4.6 mph - N/A   Clear
7:17 PM 75.2 °F 42.8 °F 31% 30.08 in 10.0 mi East 6.9 mph - N/A   Clear
7:36 PM 75.2 °F 42.8 °F 31% 30.09 in 10.0 mi East 6.9 mph - N/A   Clear
7:57 PM 73.4 °F 44.6 °F 36% 30.09 in 10.0 mi ESE 3.5 mph - N/A   Clear
8:16 PM 71.6 °F 44.6 °F 38% 30.09 in 10.0 mi ESE 4.6 mph - N/A   Clear
8:36 PM 69.8 °F 42.8 °F 38% 30.09 in 10.0 mi ESE 4.6 mph - N/A   Clear
8:57 PM 68.0 °F 42.8 °F 40% 30.10 in 10.0 mi Calm Calm - N/A   Clear
9:16 PM 66.2 °F 44.6 °F 46% 30.10 in 10.0 mi ESE 3.5 mph - N/A   Clear
9:37 PM 64.4 °F 44.6 °F 49% 30.10 in 10.0 mi Calm Calm - N/A   Clear
9:57 PM 64.4 °F 42.8 °F 45% 30.11 in 10.0 mi Calm Calm - N/A   Clear
10:16 PM 62.6 °F 44.6 °F 52% 30.10 in 10.0 mi Calm Calm - N/A   Clear
10:37 PM 60.8 °F 44.6 °F 55% 30.10 in 10.0 mi Calm Calm - N/A   Clear
10:57 PM 59.0 °F 44.6 °F 59% 30.11 in 10.0 mi ESE 3.5 mph - N/A   Clear
11:16 PM 57.2 °F 44.6 °F 63% 30.12 in 10.0 mi ESE 3.5 mph - N/A   Clear
11:37 PM 55.4 °F 44.6 °F 67% 30.12 in 10.0 mi Calm Calm - N/A   Clear
11:57 PM 55.4 °F 44.6 °F 67% 30.12 in 10.0 mi East 4.6 mph - N/A   Clear